Location: Newark
(44.2003°N, 3.2583°E)
Time: 12:46:06
(UTC+00:00)

Explorer 7 - Pass Details

Date: 24 October 2019
Orbit: 485 x 680 km, 50.3° (Epoch: 18 November)

Event Time Altitude Azimuth Distance (km) Brightness Sun altitude
Rises 08:37:59 0° 204° (SSW) 2,598 10.5 21.7°
Reaches altitude 10° 08:40:32 10° 189° (S) 1,693 9.9 22.0°
Maximum altitude 08:43:31 22° 137° (SE) 1,107 12.4 22.4°
Drops below altitude 10° 08:46:28 10° 85° (E) 1,668 10.0 22.8°
Sets 08:48:57 0° 70° (ENE) 2,549 10.5 23.1°
